Location: Unspecified
(47.2333°N, 39.7000°E)
Time: 19:06:17
(UTC+00:00)

ISS - Pass Details

Date: 08 March 2021
Orbit: 418 x 422 km, 51.6° (Epoch: 12 April)

Event Time Altitude Azimuth Distance (km) Brightness Sun altitude
Exits shadow 03:10:20 - 289° (WNW) 1,619 -1.4 -7.2°
Reaches altitude 10° 03:10:38 10° 288° (WNW) 1,500 -1.6 -7.2°
Maximum altitude 03:13:53 48° 213° (SSW) 558 -3.4 -6.6°
Drops below altitude 10° 03:17:08 10° 138° (SE) 1,493 -0.3 -6.1°
Sets 03:19:15 0° 132° (SE) 2,354 0.9 -5.7°
